When you browse on this site, cookies collect data to enhance your experience and personalize the content and advertising you see.
Visit our Privacy Policy to learn more. By continuing to use the site, you agree to this use of cookies and data.
  • en Suisse
  • Liste des pays
  • À 7 jours
  • Température de l'eau
  • Carte satellitaire
  • Carte météo
  • Widgets météo
  • user-avatar
    Se connecter

    Météo par heure à Krotovka

    Ce jour, 24 Juin, Lundi

    Heure Température Précipitation Vent Pression Humidité
    00:00 +20°C° 1.4 mm 2 m/s 744 mmHg 95%
    01:00 +20°C° 0.2 mm 2 m/s 744 mmHg 95%
    02:00 +19°C° 0.2 mm 3 m/s 744 mmHg 95%
    03:00 +19°C° 0 mm 4 m/s 744 mmHg 97%
    04:00 +18°C° 0.5 mm 4 m/s 744 mmHg 97%
    05:00 +18°C° 0.5 mm 4 m/s 744 mmHg 96%
    06:00 +17°C° 0.5 mm 4 m/s 744 mmHg 96%
    07:00 +18°C° 0.1 mm 4 m/s 744 mmHg 94%
    08:00 +18°C° 0.1 mm 4 m/s 744 mmHg 92%
    09:00 +19°C° 0 mm 4 m/s 745 mmHg 89%
    10:00 +20°C° 0 mm 4 m/s 745 mmHg 85%
    11:00 +21°C° 0 mm 5 m/s 745 mmHg 81%
    12:00 +22°C° 0 mm 5 m/s 745 mmHg 76%
    13:00 +22°C° 0 mm 5 m/s 745 mmHg 73%
    14:00 +23°C° 0 mm 5 m/s 745 mmHg 69%
    15:00 +23°C° 0 mm 5 m/s 745 mmHg 66%
    16:00 +23°C° 0 mm 4 m/s 745 mmHg 68%
    17:00 +23°C° 0 mm 4 m/s 745 mmHg 70%
    18:00 +22°C° 0 mm 4 m/s 745 mmHg 72%
    19:00 +21°C° 0 mm 4 m/s 746 mmHg 75%
    20:00 +19°C° 0 mm 3 m/s 746 mmHg 78%
    21:00 +18°C° 0 mm 3 m/s 746 mmHg 81%
    22:00 +17°C° 0 mm 3 m/s 746 mmHg 80%
    23:00 +17°C° 0 mm 3 m/s 746 mmHg 78%

    Demain, 25 Juin, Mardi

    Heure Température Précipitation Vent Pression Humidité
    00:00 +16°C° 0 mm 3 m/s 746 mmHg 76%
    01:00 +14°C° 0 mm 3 m/s 747 mmHg 73%
    02:00 +14°C° 0 mm 3 m/s 747 mmHg 70%
    03:00 +14°C° 0 mm 2 m/s 748 mmHg 67%
    04:00 +13°C° 0 mm 3 m/s 748 mmHg 70%
    05:00 +13°C° 0 mm 3 m/s 748 mmHg 73%
    06:00 +13°C° 0 mm 3 m/s 748 mmHg 76%
    07:00 +16°C° 0 mm 3 m/s 749 mmHg 73%
    08:00 +17°C° 0 mm 4 m/s 749 mmHg 70%
    09:00 +19°C° 0 mm 4 m/s 750 mmHg 67%
    10:00 +20°C° 0 mm 4 m/s 750 mmHg 64%
    11:00 +20°C° 0 mm 4 m/s 750 mmHg 60%
    12:00 +21°C° 0 mm 5 m/s 750 mmHg 56%
    13:00 +21°C° 0 mm 4 m/s 750 mmHg 56%
    14:00 +21°C° 0 mm 4 m/s 750 mmHg 56%
    15:00 +22°C° 0 mm 4 m/s 750 mmHg 56%
    16:00 +21°C° 0 mm 4 m/s 749 mmHg 59%
    17:00 +21°C° 0 mm 3 m/s 749 mmHg 62%
    18:00 +20°C° 0 mm 3 m/s 749 mmHg 65%
    19:00 +19°C° 0 mm 3 m/s 749 mmHg 67%
    20:00 +17°C° 0 mm 2 m/s 749 mmHg 70%
    21:00 +16°C° 0 mm 2 m/s 750 mmHg 72%
    22:00 +15°C° 0 mm 2 m/s 750 mmHg 72%
    23:00 +14°C° 0 mm 1 m/s 749 mmHg 72%

    Après-demain, 26 Juin, Mercredi

    Heure Température Précipitation Vent Pression Humidité
    00:00 +14°C° 0 mm 1 m/s 749 mmHg 71%
    01:00 +13°C° 0 mm 1 m/s 749 mmHg 72%
    02:00 +13°C° 0 mm 2 m/s 750 mmHg 73%
    03:00 +13°C° 0 mm 2 m/s 750 mmHg 74%
    04:00 +13°C° 0 mm 2 m/s 750 mmHg 75%
    05:00 +14°C° 0 mm 2 m/s 749 mmHg 77%
    06:00 +14°C° 0 mm 2 m/s 749 mmHg 78%
    07:00 +15°C° 0 mm 2 m/s 749 mmHg 74%
    08:00 +17°C° 0 mm 2 m/s 749 mmHg 69%
    09:00 +18°C° 0 mm 2 m/s 749 mmHg 64%
    10:00 +19°C° 0 mm 2 m/s 749 mmHg 61%
    11:00 +20°C° 0 mm 2 m/s 748 mmHg 58%
    12:00 +21°C° 0 mm 2 m/s 748 mmHg 55%
    13:00 +21°C° 0 mm 3 m/s 748 mmHg 55%
    14:00 +22°C° 0 mm 3 m/s 747 mmHg 56%
    15:00 +22°C° 0 mm 4 m/s 747 mmHg 56%
    16:00 +21°C° 0.3 mm 3 m/s 746 mmHg 62%
    17:00 +21°C° 0.3 mm 3 m/s 746 mmHg 67%
    18:00 +21°C° 0.3 mm 3 m/s 745 mmHg 73%
    19:00 +19°C° 0.3 mm 3 m/s 745 mmHg 77%
    20:00 +18°C° 0.3 mm 3 m/s 744 mmHg 81%
    21:00 +17°C° 0.3 mm 3 m/s 744 mmHg 85%
    22:00 +16°C° 0 mm 2 m/s 743 mmHg 87%
    23:00 +16°C° 0 mm 1 m/s 743 mmHg 89%

    27 Juin, Jeudi

    Heure Température Précipitation Vent Pression Humidité
    00:00 +14°C° 0 mm 0 m/s 743 mmHg 91%
    01:00 +15°C° 0.1 mm 1 m/s 742 mmHg 92%
    02:00 +14°C° 0.1 mm 1 m/s 742 mmHg 93%
    03:00 +14°C° 0.1 mm 1 m/s 742 mmHg 93%
    04:00 +14°C° 0 mm 1 m/s 741 mmHg 93%
    05:00 +14°C° 0 mm 1 m/s 741 mmHg 92%
    06:00 +14°C° 0 mm 0 m/s 740 mmHg 92%
    07:00 +15°C° 0.4 mm 1 m/s 740 mmHg 92%
    08:00 +15°C° 0.4 mm 2 m/s 739 mmHg 93%
    09:00 +15°C° 0.4 mm 2 m/s 739 mmHg 94%
    10:00 +14°C° 0.3 mm 3 m/s 738 mmHg 92%
    11:00 +15°C° 0.3 mm 4 m/s 737 mmHg 90%
    12:00 +16°C° 0.3 mm 5 m/s 737 mmHg 89%
    13:00 +16°C° 0.8 mm 5 m/s 736 mmHg 90%
    14:00 +16°C° 0.8 mm 5 m/s 735 mmHg 92%
    15:00 +16°C° 0.8 mm 6 m/s 734 mmHg 94%
    16:00 +17°C° 1.4 mm 5 m/s 733 mmHg 93%
    17:00 +17°C° 1.4 mm 5 m/s 732 mmHg 92%
    18:00 +19°C° 1.4 mm 5 m/s 731 mmHg 92%
    19:00 +19°C° 1.5 mm 5 m/s 731 mmHg 92%
    20:00 +17°C° 1.5 mm 6 m/s 730 mmHg 92%
    21:00 +17°C° 1.5 mm 6 m/s 729 mmHg 92%
    22:00 +17°C° 3.4 mm 7 m/s 728 mmHg 93%
    23:00 +17°C° 3.4 mm 7 m/s 727 mmHg 94%

    28 Juin, Vendredi

    Heure Température Précipitation Vent Pression Humidité
    00:00 +16°C° 3.4 mm 8 m/s 726 mmHg 95%
    01:00 +16°C° 1.2 mm 7 m/s 726 mmHg 96%
    02:00 +16°C° 1.2 mm 6 m/s 725 mmHg 96%
    03:00 +16°C° 1.2 mm 6 m/s 725 mmHg 96%
    04:00 +15°C° 0.3 mm 5 m/s 725 mmHg 95%
    05:00 +15°C° 0.3 mm 5 m/s 724 mmHg 94%
    06:00 +14°C° 0.3 mm 5 m/s 724 mmHg 94%
    07:00 +14°C° 0 mm 5 m/s 724 mmHg 92%
    08:00 +14°C° 0 mm 5 m/s 724 mmHg 91%
    09:00 +14°C° 0 mm 6 m/s 724 mmHg 89%
    10:00 +14°C° 0.2 mm 6 m/s 724 mmHg 87%
    11:00 +15°C° 0.2 mm 6 m/s 723 mmHg 84%
    12:00 +15°C° 0.2 mm 7 m/s 723 mmHg 82%
    13:00 +15°C° 0.3 mm 7 m/s 723 mmHg 84%
    14:00 +13°C° 0.3 mm 8 m/s 723 mmHg 86%
    15:00 +12°C° 0.3 mm 8 m/s 722 mmHg 88%
    16:00 +12°C° 0.5 mm 8 m/s 722 mmHg 90%
    17:00 +11°C° 0.5 mm 7 m/s 722 mmHg 91%
    18:00 +11°C° 0.5 mm 7 m/s 722 mmHg 93%
    19:00 +11°C° 0.5 mm 7 m/s 722 mmHg 93%
    20:00 +10°C° 0.5 mm 7 m/s 722 mmHg 94%
    21:00 +10°C° 0.5 mm 8 m/s 721 mmHg 94%
    22:00 +10°C° 0.3 mm 7 m/s 721 mmHg 94%
    23:00 +10°C° 0.3 mm 7 m/s 721 mmHg 95%

    29 Juin, Samedi

    Heure Température Précipitation Vent Pression Humidité
    00:00 +10°C° 0.3 mm 7 m/s 721 mmHg 95%
    01:00 +10°C° 0.3 mm 7 m/s 721 mmHg 95%
    02:00 +10°C° 0.3 mm 7 m/s 720 mmHg 95%
    03:00 +10°C° 0.3 mm 7 m/s 720 mmHg 94%
    04:00 +10°C° 0.4 mm 7 m/s 720 mmHg 94%
    05:00 +10°C° 0.4 mm 7 m/s 720 mmHg 94%
    06:00 +10°C° 0.4 mm 7 m/s 720 mmHg 94%
    07:00 +10°C° 0.1 mm 7 m/s 720 mmHg 94%
    08:00 +10°C° 0.1 mm 7 m/s 721 mmHg 93%
    09:00 +10°C° 0.1 mm 7 m/s 721 mmHg 93%
    10:00 +10°C° 0.2 mm 7 m/s 721 mmHg 93%
    11:00 +10°C° 0.2 mm 7 m/s 722 mmHg 93%
    12:00 +10°C° 0.2 mm 8 m/s 722 mmHg 92%
    13:00 +10°C° 0.1 mm 7 m/s 722 mmHg 92%
    14:00 +10°C° 0.1 mm 7 m/s 723 mmHg 91%
    15:00 +10°C° 0.1 mm 7 m/s 723 mmHg 91%
    16:00 +10°C° 0.1 mm 7 m/s 723 mmHg 91%
    17:00 +9°C° 0.1 mm 6 m/s 723 mmHg 91%
    18:00 +9°C° 0.1 mm 6 m/s 724 mmHg 91%
    19:00 +9°C° 0.5 mm 6 m/s 724 mmHg 92%
    20:00 +9°C° 0.5 mm 6 m/s 724 mmHg 94%
    21:00 +8°C° 0.5 mm 5 m/s 724 mmHg 95%
    22:00 +8°C° 0.7 mm 5 m/s 724 mmHg 95%
    23:00 +8°C° 0.7 mm 5 m/s 724 mmHg 96%
    Voir plus